#Datum;Uhrzeit;WR;Pac;DaySum;Status;WR;Pac;DaySum;Status;Pdc1;Udc;Temp;WR;Pac;DaySum;Status;Pdc1;Udc;Temp;WR;Pac;DaySum;Status;Pdc1;Udc;Temp;WR;Pac;DaySum;Status;Pdc1;Pdc2;Udc1;Udc2;Temp;WR;Pac;DaySum;Status;Pdc1;Pdc2;Udc1;Udc2;Temp;WR;Pac;DaySum;Status;Pdc1;Udc;Temp;WR;Pac;DaySum;Status;Pdc1;Udc;Temp;WR;Pac;DaySum;Status;Pdc1;Udc;Temp
11.02.19;23:55:00;1;261;10946;0;2;0;4076;0;0;0;0;3;0;2505;0;0;0;0;4;0;3437;0;0;0;0;5;0;8650;0;0;0;0;0;0;6;0;6335;0;0;0;0;0;0;7;0;4267;0;0;0;0;8;0;4279;0;0;0;0;9;0;2290;0;0;0;0
11.02.19;23:50:00;1;252;10924;0;2;0;4076;0;0;0;0;3;0;2505;0;0;0;0;4;0;3437;0;0;0;0;5;0;8650;0;0;0;0;0;0;6;0;6335;0;0;0;0;0;0;7;0;4267;0;0;0;0;8;0;4279;0;0;0;0;9;0;2290;0;0;0;0
11.02.19;23:45:00;1;635;10887;0;2;0;4076;0;0;0;0;3;0;2505;0;0;0;0;4;0;3437;0;0;0;0;5;0;8650;0;0;0;0;0;0;6;0;6335;0;0;0;0;0;0;7;0;4267;0;0;0;0;8;0;4279;0;0;0;0;9;0;2290;0;0;0;0
11.02.19;23:40:00;1;218;10859;0;2;0;4076;0;0;0;0;3;0;2505;0;0;0;0;4;0;3437;0;0;0;0;5;0;8650;0;0;0;0;0;0;6;0;6335;0;0;0;0;0;0;7;0;4267;0;0;0;0;8;0;4279;0;0;0;0;9;0;2290;0;0;0;0
11.02.19;23:35:00;1;218;10840;0;2;0;4076;0;0;0;0;3;0;2505;0;0;0;0;4;0;3437;0;0;0;0;5;0;8650;0;0;0;0;0;0;6;0;6335;0;0;0;0;0;0;7;0;4267;0;0;0;0;8;0;4279;0;0;0;0;9;0;2290;0;0;0;0
11.02.19;23:30:00;1;661;10822;0;2;0;4076;0;0;0;0;3;0;2505;0;0;0;0;4;0;3437;0;0;0;0;5;0;8650;0;0;0;0;0;0;6;0;6335;0;0;0;0;0;0;7;0;4267;0;0;0;0;8;0;4279;0;0;0;0;9;0;2290;0;0;0;0
11.02.19;23:25:00;1;240;10773;0;2;0;4076;0;0;0;0;3;0;2505;0;0;0;0;4;0;3437;0;0;0;0;5;0;8650;0;0;0;0;0;0;6;0;6335;0;0;0;0;0;0;7;0;4267;0;0;0;0;8;0;4279;0;0;0;0;9;0;2290;0;0;0;0
11.02.19;23:20:00;1;220;10753;0;2;0;4076;0;0;0;0;3;0;2505;0;0;0;0;4;0;3437;0;0;0;0;5;0;8650;0;0;0;0;0;0;6;0;6335;0;0;0;0;0;0;7;0;4267;0;0;0;0;8;0;4279;0;0;0;0;9;0;2290;0;0;0;0
11.02.19;23:15:00;1;426;10735;0;2;0;4076;0;0;0;0;3;0;2505;0;0;0;0;4;0;3437;0;0;0;0;5;0;8650;0;0;0;0;0;0;6;0;6335;0;0;0;0;0;0;7;0;4267;0;0;0;0;8;0;4279;0;0;0;0;9;0;2290;0;0;0;0
11.02.19;23:10:00;1;219;10689;0;2;0;4076;0;0;0;0;3;0;2505;0;0;0;0;4;0;3437;0;0;0;0;5;0;8650;0;0;0;0;0;0;6;0;6335;0;0;0;0;0;0;7;0;4267;0;0;0;0;8;0;4279;0;0;0;0;9;0;2290;0;0;0;0
11.02.19;23:05:00;1;245;10670;0;2;0;4076;0;0;0;0;3;0;2505;0;0;0;0;4;0;3437;0;0;0;0;5;0;8650;0;0;0;0;0;0;6;0;6335;0;0;0;0;0;0;7;0;4267;0;0;0;0;8;0;4279;0;0;0;0;9;0;2290;0;0;0;0
11.02.19;23:00:00;1;262;10649;0;2;0;4076;0;0;0;0;3;0;2505;0;0;0;0;4;0;3437;0;0;0;0;5;0;8650;0;0;0;0;0;0;6;0;6335;0;0;0;0;0;0;7;0;4267;0;0;0;0;8;0;4279;0;0;0;0;9;0;2290;0;0;0;0
11.02.19;22:55:00;1;521;10628;0;2;0;4076;0;0;0;0;3;0;2505;0;0;0;0;4;0;3437;0;0;0;0;5;0;8650;2;0;0;0;0;0;6;0;6335;2;0;0;0;0;0;7;0;4267;0;0;0;0;8;0;4279;0;0;0;0;9;0;2290;0;0;0;0
11.02.19;22:50:00;1;1551;10578;0;2;0;4076;0;0;0;0;3;0;2505;0;0;0;0;4;0;3437;0;0;0;0;5;0;8650;2;0;0;0;0;0;6;0;6335;2;0;0;0;0;0;7;0;4267;0;0;0;0;8;0;4279;0;0;0;0;9;0;2290;0;0;0;0
11.02.19;22:45:00;1;1514;10417;0;2;0;4076;0;0;0;0;3;0;2505;0;0;0;0;4;0;3437;0;0;0;0;5;0;8650;2;0;0;0;0;0;6;0;6335;2;0;0;0;0;0;7;0;4267;0;0;0;0;8;0;4279;0;0;0;0;9;0;2290;0;0;0;0
11.02.19;22:40:00;1;580;10325;0;2;0;4076;0;0;0;0;3;0;2505;0;0;0;0;4;0;3437;0;0;0;0;5;0;8650;2;0;0;0;0;0;6;0;6335;2;0;0;0;0;0;7;0;4267;0;0;0;0;8;0;4279;0;0;0;0;9;0;2290;0;0;0;0
11.02.19;22:35:00;1;263;10278;0;2;0;4076;0;0;0;0;3;0;2505;0;0;0;0;4;0;3437;0;0;0;0;5;0;8650;2;0;0;0;0;0;6;0;6335;2;0;0;0;0;0;7;0;4267;0;0;0;0;8;0;4279;0;0;0;0;9;0;2290;0;0;0;0
11.02.19;22:30:00;1;319;10256;0;2;0;4076;0;0;0;0;3;0;2505;0;0;0;0;4;0;3437;0;0;0;0;5;0;8650;2;0;0;0;0;0;6;0;6335;2;0;0;0;0;0;7;0;4267;0;0;0;0;8;0;4279;0;0;0;0;9;0;2290;0;0;0;0
11.02.19;22:25:00;1;491;10228;0;2;0;4076;0;0;0;0;3;0;2505;0;0;0;0;4;0;3437;0;0;0;0;5;0;8650;2;0;0;0;0;0;6;0;6335;2;0;0;0;0;0;7;0;4267;0;0;0;0;8;0;4279;0;0;0;0;9;0;2290;0;0;0;0
11.02.19;22:20:00;1;647;10174;0;2;0;4076;0;0;0;0;3;0;2505;0;0;0;0;4;0;3437;0;0;0;0;5;0;8650;2;0;0;0;0;0;6;0;6335;2;0;0;0;0;0;7;0;4267;0;0;0;0;8;0;4279;0;0;0;0;9;0;2290;0;0;0;0
11.02.19;22:15:00;1;420;10125;0;2;0;4076;0;0;0;0;3;0;2505;0;0;0;0;4;0;3437;0;0;0;0;5;0;8650;2;0;0;0;0;0;6;0;6335;2;0;0;0;0;0;7;0;4267;0;0;0;0;8;0;4279;0;0;0;0;9;0;2290;0;0;0;0
11.02.19;22:10:00;1;435;10090;0;2;0;4076;0;0;0;0;3;0;2505;0;0;0;0;4;0;3437;0;0;0;0;5;0;8650;2;0;0;0;0;0;6;0;6335;2;0;0;0;0;0;7;0;4267;0;0;0;0;8;0;4279;0;0;0;0;9;0;2290;0;0;0;0
11.02.19;22:05:00;1;886;10053;0;2;0;4076;0;0;0;0;3;0;2505;0;0;0;0;4;0;3437;0;0;0;0;5;0;8650;2;0;0;0;0;0;6;0;6335;2;0;0;0;0;0;7;0;4267;0;0;0;0;8;0;4279;0;0;0;0;9;0;2290;0;0;0;0
11.02.19;22:00:00;1;464;9985;0;2;0;4076;0;0;0;0;3;0;2505;0;0;0;0;4;0;3437;0;0;0;0;5;0;8650;2;0;0;0;0;0;6;0;6335;2;0;0;0;0;0;7;0;4267;0;0;0;0;8;0;4279;0;0;0;0;9;0;2290;0;0;0;0
11.02.19;21:55:00;1;480;9946;0;2;0;4076;0;0;0;0;3;0;2505;0;0;0;0;4;0;3437;0;0;0;0;5;0;8650;2;0;0;0;0;0;6;0;6335;2;0;0;0;0;0;7;0;4267;0;0;0;0;8;0;4279;0;0;0;0;9;0;2290;0;0;0;0
11.02.19;21:50:00;1;373;9912;0;2;0;4076;0;0;0;0;3;0;2505;0;0;0;0;4;0;3437;0;0;0;0;5;0;8650;2;0;0;0;0;0;6;0;6335;2;0;0;0;0;0;7;0;4267;0;0;0;0;8;0;4279;0;0;0;0;9;0;2290;0;0;0;0
11.02.19;21:45:00;1;884;9881;0;2;0;4076;0;0;0;0;3;0;2505;0;0;0;0;4;0;3437;0;0;0;0;5;0;8650;2;0;0;0;0;0;6;0;6335;2;0;0;0;0;0;7;0;4267;0;0;0;0;8;0;4279;0;0;0;0;9;0;2290;0;0;0;0
11.02.19;21:40:00;1;376;9821;0;2;0;4076;0;0;0;0;3;0;2505;0;0;0;0;4;0;3437;0;0;0;0;5;0;8650;2;0;0;0;0;0;6;0;6335;2;0;0;0;0;0;7;0;4267;0;0;0;0;8;0;4279;0;0;0;0;9;0;2290;0;0;0;0
11.02.19;21:35:00;1;372;9789;0;2;0;4076;0;0;0;0;3;0;2505;0;0;0;0;4;0;3437;0;0;0;0;5;0;8650;2;0;0;0;0;0;6;0;6335;2;0;0;0;0;0;7;0;4267;0;0;0;0;8;0;4279;0;0;0;0;9;0;2290;0;0;0;0
11.02.19;21:30:00;1;984;9758;0;2;0;4076;0;0;0;0;3;0;2505;0;0;0;0;4;0;3437;0;0;0;0;5;0;8650;2;0;0;0;0;0;6;0;6335;2;0;0;0;0;0;7;0;4267;0;0;0;0;8;0;4279;0;0;0;0;9;0;2290;0;0;0;0
11.02.19;21:25:00;1;376;9699;0;2;0;4076;0;0;0;0;3;0;2505;0;0;0;0;4;0;3437;0;0;0;0;5;0;8650;2;0;0;0;0;0;6;0;6335;2;0;0;0;0;0;7;0;4267;0;0;0;0;8;0;4279;0;0;0;0;9;0;2290;0;0;0;0
11.02.19;21:20:00;1;377;9668;0;2;0;4076;0;0;0;0;3;0;2505;0;0;0;0;4;0;3437;0;0;0;0;5;0;8650;2;0;0;0;0;0;6;0;6335;2;0;0;0;0;0;7;0;4267;0;0;0;0;8;0;4279;0;0;0;0;9;0;2290;0;0;0;0
11.02.19;21:15:00;1;366;9636;0;2;0;4076;0;0;0;0;3;0;2505;0;0;0;0;4;0;3437;0;0;0;0;5;0;8650;2;0;0;0;0;0;6;0;6335;2;0;0;0;0;0;7;0;4267;0;0;0;0;8;0;4279;0;0;0;0;9;0;2290;0;0;0;0
11.02.19;21:10:00;1;930;9606;0;2;0;4076;0;0;0;0;3;0;2505;0;0;0;0;4;0;3437;0;0;0;0;5;0;8650;2;0;0;0;0;0;6;0;6335;2;0;0;0;0;0;7;0;4267;0;0;0;0;8;0;4279;0;0;0;0;9;0;2290;0;0;0;0
11.02.19;21:05:00;1;408;9544;0;2;0;4076;0;0;0;0;3;0;2505;0;0;0;0;4;0;3437;0;0;0;0;5;0;8650;2;0;0;0;0;0;6;0;6335;2;0;0;0;0;0;7;0;4267;0;0;0;0;8;0;4279;0;0;0;0;9;0;2290;0;0;0;0
11.02.19;21:00:00;1;418;9510;0;2;0;4076;0;0;0;0;3;0;2505;0;0;0;0;4;0;3437;0;0;0;0;5;0;8650;2;0;0;0;0;0;6;0;6335;2;0;0;0;0;0;7;0;4267;0;0;0;0;8;0;4279;0;0;0;0;9;0;2290;0;0;0;0
11.02.19;20:55:00;1;382;9475;0;2;0;4076;0;0;0;0;3;0;2505;0;0;0;0;4;0;3437;0;0;0;0;5;0;8650;2;0;0;0;0;0;6;0;6335;2;0;0;0;0;0;7;0;4267;0;0;0;0;8;0;4279;0;0;0;0;9;0;2290;0;0;0;0
11.02.19;20:50:00;1;2994;9434;0;2;0;4076;0;0;0;0;3;0;2505;0;0;0;0;4;0;3437;0;0;0;0;5;0;8650;2;0;0;0;0;0;6;0;6335;2;0;0;0;0;0;7;0;4267;0;0;0;0;8;0;4279;0;0;0;0;9;0;2290;0;0;0;0
11.02.19;20:45:00;1;813;9178;0;2;0;4076;0;0;0;0;3;0;2505;0;0;0;0;4;0;3437;0;0;0;0;5;0;8650;2;0;0;0;0;0;6;0;6335;2;0;0;0;0;0;7;0;4267;0;0;0;0;8;0;4279;0;0;0;0;9;0;2290;0;0;0;0
11.02.19;20:40:00;1;371;9117;0;2;0;4076;0;0;0;0;3;0;2505;0;0;0;0;4;0;3437;0;0;0;0;5;0;8650;2;0;0;0;0;0;6;0;6335;2;0;0;0;0;0;7;0;4267;0;0;0;0;8;0;4279;0;0;0;0;9;0;2290;0;0;0;0
11.02.19;20:35:00;1;778;9087;0;2;0;4076;0;0;0;0;3;0;2505;0;0;0;0;4;0;3437;0;0;0;0;5;0;8650;2;0;0;0;0;0;6;0;6335;2;0;0;0;0;0;7;0;4267;0;0;0;0;8;0;4279;0;0;0;0;9;0;2290;0;0;0;0
11.02.19;20:30:00;1;433;9026;0;2;0;4076;0;0;0;0;3;0;2505;0;0;0;0;4;0;3437;0;0;0;0;5;0;8650;2;0;0;0;0;0;6;0;6335;2;0;0;0;0;0;7;0;4267;0;0;0;0;8;0;4279;0;0;0;0;9;0;2290;0;0;0;0
11.02.19;20:25:00;1;434;8990;0;2;0;4076;0;0;0;0;3;0;2505;0;0;0;0;4;0;3437;0;0;0;0;5;0;8650;2;0;0;0;0;0;6;0;6335;2;0;0;0;0;0;7;0;4267;0;0;0;0;8;0;4279;0;0;0;0;9;0;2290;0;0;0;0
11.02.19;20:20:00;1;434;8954;0;2;0;4076;0;0;0;0;3;0;2505;0;0;0;0;4;0;3437;0;0;0;0;5;0;8650;2;0;0;0;0;0;6;0;6335;2;0;0;0;0;0;7;0;4267;0;0;0;0;8;0;4279;0;0;0;0;9;0;2290;0;0;0;0
11.02.19;20:15:00;1;622;8900;0;2;0;4076;0;0;0;0;3;0;2505;0;0;0;0;4;0;3437;0;0;0;0;5;0;8650;2;0;0;0;0;0;6;0;6335;2;0;0;0;0;0;7;0;4267;0;0;0;0;8;0;4279;0;0;0;0;9;0;2290;0;0;0;0
11.02.19;20:10:00;1;462;8854;0;2;0;4076;0;0;0;0;3;0;2505;0;0;0;0;4;0;3437;0;0;0;0;5;0;8650;2;0;0;0;0;0;6;0;6335;2;0;0;0;0;0;7;0;4267;0;0;0;0;8;0;4279;0;0;0;0;9;0;2290;0;0;0;0
11.02.19;20:05:00;1;473;8816;0;2;0;4076;0;0;0;0;3;0;2505;0;0;0;0;4;0;3437;0;0;0;0;5;0;8650;2;0;0;0;0;0;6;0;6335;2;0;0;0;0;0;7;0;4267;0;0;0;0;8;0;4279;0;0;0;0;9;0;2290;0;0;0;0
11.02.19;20:00:00;1;953;8776;0;2;0;4076;0;0;0;0;3;0;2505;0;0;0;0;4;0;3437;0;0;0;0;5;0;8650;2;0;0;0;0;0;6;0;6335;2;0;0;0;0;0;7;0;4267;0;0;0;0;8;0;4279;0;0;0;0;9;0;2290;0;0;0;0
11.02.19;19:55:00;1;1359;8704;0;2;0;4076;0;0;0;0;3;0;2505;0;0;0;0;4;0;3437;0;0;0;0;5;0;8650;2;0;0;0;0;0;6;0;6335;2;0;0;0;0;0;7;0;4267;0;0;0;0;8;0;4279;0;0;0;0;9;0;2290;0;0;0;0
11.02.19;19:50:00;1;368;8619;0;2;0;4076;0;0;0;0;3;0;2505;0;0;0;0;4;0;3437;0;0;0;0;5;0;8650;2;0;0;0;0;0;6;0;6335;2;0;0;0;0;0;7;0;4267;0;0;0;0;8;0;4279;0;0;0;0;9;0;2290;0;0;0;0
11.02.19;19:45:00;1;392;8588;0;2;0;4076;0;0;0;0;3;0;2505;0;0;0;0;4;0;3437;0;0;0;0;5;0;8650;2;0;0;0;0;0;6;0;6335;2;0;0;0;0;0;7;0;4267;0;0;0;0;8;0;4279;0;0;0;0;9;0;2290;0;0;0;0
11.02.19;19:40:00;1;743;8538;0;2;0;4076;0;0;0;0;3;0;2505;0;0;0;0;4;0;3437;0;0;0;0;5;0;8650;2;0;0;0;0;0;6;0;6335;2;0;0;0;0;0;7;0;4267;0;0;0;0;8;0;4279;0;0;0;0;9;0;2290;0;0;0;0
11.02.19;19:35:00;1;374;8497;0;2;0;4076;0;0;0;0;3;0;2505;0;0;0;0;4;0;3437;0;0;0;0;5;0;8650;2;0;0;0;0;0;6;0;6335;2;0;0;0;0;0;7;0;4267;0;0;0;0;8;0;4279;0;0;0;0;9;0;2290;0;0;0;0
11.02.19;19:30:00;1;748;8466;0;2;0;4076;0;0;0;0;3;0;2505;0;0;0;0;4;0;3437;0;0;0;0;5;0;8650;2;0;0;0;0;0;6;0;6335;2;0;0;0;0;0;7;0;4267;0;0;0;0;8;0;4279;0;0;0;0;9;0;2290;0;0;0;0
11.02.19;19:25:00;1;490;8406;0;2;0;4076;0;0;0;0;3;0;2505;0;0;0;0;4;0;3437;0;0;0;0;5;0;8650;2;0;0;0;0;0;6;0;6335;2;0;0;0;0;0;7;0;4267;0;0;0;0;8;0;4279;0;0;0;0;9;0;2290;0;0;0;0
11.02.19;19:20:00;1;267;8355;0;2;0;4076;0;0;0;0;3;0;2505;0;0;0;0;4;0;3437;0;0;0;0;5;0;8650;2;0;0;0;0;0;6;0;6335;2;0;0;0;0;0;7;0;4267;0;0;0;0;8;0;4279;0;0;0;0;9;0;2290;0;0;0;0
11.02.19;19:15:00;1;258;8333;0;2;0;4076;0;0;0;0;3;0;2505;0;0;0;0;4;0;3437;0;0;0;0;5;0;8650;2;0;0;0;0;0;6;0;6335;2;0;0;0;0;0;7;0;4267;0;0;0;0;8;0;4279;0;0;0;0;9;0;2290;0;0;0;0
11.02.19;19:10:00;1;271;8311;0;2;0;4076;0;0;0;0;3;0;2505;0;0;0;0;4;0;3437;0;0;0;0;5;0;8650;2;0;0;0;0;0;6;0;6335;2;0;0;0;0;0;7;0;4267;0;0;0;0;8;0;4279;0;0;0;0;9;0;2290;0;0;0;0
11.02.19;19:05:00;1;1222;8289;0;2;0;4076;0;0;0;0;3;0;2505;0;0;0;0;4;0;3437;0;0;0;0;5;0;8650;2;0;0;0;0;0;6;0;6335;2;0;0;0;0;0;7;0;4267;0;0;0;0;8;0;4279;0;0;0;0;9;0;2290;0;0;0;0
11.02.19;19:00:00;1;280;8239;0;2;0;4076;0;0;0;0;3;0;2505;0;0;0;0;4;0;3437;0;0;0;0;5;0;8650;2;0;0;0;0;0;6;0;6335;2;0;0;0;0;0;7;0;4267;0;0;0;0;8;0;4279;0;0;0;0;9;0;2290;0;0;0;0
11.02.19;18:55:00;1;220;8217;0;2;0;4076;0;0;0;0;3;0;2505;0;0;0;0;4;0;3437;0;0;0;0;5;0;8650;2;0;0;0;0;0;6;0;6335;2;0;0;0;0;0;7;0;4267;0;0;0;0;8;0;4279;0;0;0;0;9;0;2290;0;0;0;0
11.02.19;18:50:00;1;422;8199;0;2;0;4076;0;0;0;0;3;0;2505;0;0;0;0;4;0;3437;0;0;0;0;5;0;8650;2;0;0;0;0;0;6;0;6335;2;0;0;0;0;0;7;0;4267;0;0;0;0;8;0;4279;0;0;0;0;9;0;2290;0;0;0;0
11.02.19;18:45:00;1;224;8152;0;2;0;4076;0;0;0;0;3;0;2505;0;0;0;0;4;0;3437;0;0;0;0;5;0;8650;2;0;0;0;0;0;6;0;6335;2;0;0;0;0;0;7;0;4267;0;0;0;0;8;0;4279;0;0;0;0;9;0;2290;0;0;0;0
11.02.19;18:40:00;1;2821;8100;0;2;0;4076;0;0;0;0;3;0;2505;0;0;0;0;4;0;3437;0;0;0;0;5;0;8650;2;0;0;0;0;0;6;0;6335;2;0;0;0;0;0;7;0;4267;0;0;0;0;8;0;4279;0;0;0;0;9;0;2290;0;0;0;0
11.02.19;18:35:00;1;230;7898;0;2;0;4076;0;0;0;0;3;0;2505;0;0;0;0;4;0;3437;0;0;0;0;5;0;8650;2;0;0;0;0;0;6;0;6335;2;0;0;0;0;0;7;0;4267;0;0;0;0;8;0;4279;0;0;0;0;9;0;2290;0;0;0;0
11.02.19;18:30:00;1;624;7878;0;2;0;4076;0;0;0;0;3;0;2505;0;0;0;0;4;0;3437;0;0;0;0;5;0;8650;2;0;0;0;0;0;6;0;6335;2;0;0;0;0;0;7;0;4267;0;0;0;0;8;0;4279;0;0;0;0;9;0;2290;0;0;0;0
11.02.19;18:25:00;1;235;7830;0;2;0;4076;0;0;0;0;3;0;2505;0;0;0;0;4;0;3437;0;0;0;0;5;0;8650;2;0;0;0;0;0;6;0;6335;2;0;0;0;0;0;7;0;4267;0;0;0;0;8;0;4279;0;0;0;0;9;0;2290;0;0;0;0
11.02.19;18:20:00;1;293;7810;0;2;0;4076;0;0;0;0;3;0;2505;0;0;0;0;4;0;3437;0;0;0;0;5;0;8650;2;0;0;0;0;0;6;0;6335;2;0;0;0;0;0;7;0;4267;0;0;0;0;8;0;4279;0;0;0;0;9;0;2290;0;0;0;0
11.02.19;18:15:00;1;524;7786;0;2;0;4076;0;0;0;0;3;0;2505;0;0;0;0;4;0;3437;0;0;0;0;5;0;8650;2;0;0;0;0;0;6;0;6335;2;0;0;0;0;0;7;0;4267;0;0;0;0;8;0;4279;0;0;0;0;9;0;2290;0;0;0;0
11.02.19;18:10:00;1;351;7731;0;2;0;4076;0;0;0;0;3;0;2505;0;0;0;0;4;0;3437;0;0;0;0;5;0;8650;2;0;0;0;0;0;6;0;6335;2;0;0;0;0;0;7;0;4267;0;0;0;0;8;0;4279;0;0;0;0;9;0;2290;0;0;0;0
11.02.19;18:05:00;1;353;7702;0;2;0;4076;0;0;0;0;3;0;2505;0;0;0;0;4;0;3437;0;0;0;0;5;0;8650;2;0;0;0;0;0;6;0;6335;2;0;0;0;0;0;7;0;4267;0;0;0;0;8;0;4279;0;0;0;0;9;0;2290;0;0;0;0
11.02.19;18:00:00;1;346;7673;0;2;0;4076;0;0;0;0;3;0;2505;0;0;0;0;4;0;3437;0;0;0;0;5;0;8650;2;0;0;0;0;0;6;0;6335;2;0;0;0;0;0;7;0;4267;0;0;0;0;8;0;4279;0;0;0;0;9;0;2290;0;0;0;0
11.02.19;17:55:00;1;552;7626;0;2;0;4076;0;0;0;0;3;0;2505;0;0;0;0;4;0;3437;0;0;0;0;5;0;8650;2;0;0;0;0;0;6;0;6335;2;0;0;0;0;0;7;0;4267;0;0;0;0;8;0;4279;0;0;0;0;9;0;2290;0;0;0;0
11.02.19;17:50:00;1;367;7585;0;2;0;4076;0;0;0;0;3;0;2505;0;0;0;0;4;0;3437;0;0;0;0;5;0;8650;2;0;0;0;0;0;6;0;6335;2;0;0;0;0;0;7;0;4267;0;0;0;0;8;0;4279;0;0;0;0;9;0;2290;0;0;0;0
11.02.19;17:45:00;1;310;7554;0;2;0;4076;0;0;0;0;3;0;2505;0;0;0;0;4;0;3437;0;0;0;0;5;0;8650;2;0;0;0;0;0;6;0;6335;2;0;0;0;0;0;7;0;4267;0;0;0;0;8;0;4279;0;0;0;0;9;0;2290;0;0;0;0
11.02.19;17:40:00;1;707;7528;0;2;0;4076;0;0;34;1;3;0;2505;0;0;76;3;4;0;3437;0;0;0;0;5;0;8650;2;0;0;0;0;0;6;0;6335;2;0;0;0;0;0;7;0;4267;0;0;0;0;8;0;4279;0;0;0;0;9;0;2290;0;0;0;0
11.02.19;17:35:00;1;359;7474;0;2;0;4076;6;0;279;9;3;0;2505;6;0;305;13;4;0;3437;0;0;11;1;5;0;8650;2;0;0;0;0;0;6;0;6335;1;0;0;0;0;0;7;0;4267;0;0;0;0;8;0;4279;0;0;0;0;9;0;2290;0;0;0;0
11.02.19;17:30:00;1;388;7442;0;2;0;4076;6;0;310;9;3;0;2505;6;0;366;13;4;0;3437;2;0;85;7;5;0;8650;2;0;0;84;84;5;6;0;6335;2;0;0;0;0;1;7;0;4267;0;0;0;0;8;0;4279;0;0;0;0;9;0;2290;0;0;0;0
11.02.19;17:25:00;1;884;7404;0;2;0;4076;6;0;344;9;3;0;2505;6;0;405;13;4;0;3437;1;0;118;7;5;0;8650;2;0;3;330;367;19;6;0;6335;1;0;0;0;0;6;7;0;4267;0;0;0;0;8;0;4279;0;0;0;0;9;0;2290;0;0;0;0
11.02.19;17:20:00;1;477;7344;0;2;0;4076;6;0;341;9;3;0;2505;6;0;410;13;4;0;3437;1;0;116;7;5;0;8650;1;0;0;293;292;16;6;0;6335;1;6;3;149;311;16;7;0;4267;0;0;42;2;8;0;4279;0;0;41;1;9;0;2290;0;0;130;4
11.02.19;17:15:00;1;363;7306;0;2;0;4076;6;0;355;9;3;0;2505;6;2;424;13;4;0;3437;1;0;133;7;5;0;8650;26;0;0;383;410;20;6;0;6335;23;7;2;449;242;18;7;0;4267;6;0;264;12;8;0;4279;6;0;269;11;9;0;2290;6;0;294;8
11.02.19;17:10:00;1;681;7272;0;2;0;4076;6;0;359;9;3;0;2505;6;0;432;13;4;0;3437;1;0;140;7;5;0;8650;23;0;0;390;488;20;6;0;6335;23;6;3;287;457;18;7;0;4267;6;0;283;12;8;0;4279;6;0;287;11;9;0;2290;6;0;307;8
11.02.19;17:05:00;1;839;7212;0;2;0;4076;6;0;381;10;3;0;2505;6;2;459;13;4;0;3437;1;0;178;8;5;0;8650;1;0;1;416;631;20;6;0;6335;23;7;3;181;553;18;7;0;4267;6;0;347;12;8;0;4279;6;0;353;12;9;0;2290;6;0;377;9
11.02.19;17:00:00;1;620;7168;0;2;0;4076;6;0;389;10;3;0;2505;6;0;471;13;4;0;3437;1;0;190;8;5;6;8649;1;0;1;410;631;20;6;0;6335;23;5;3;476;307;19;7;0;4267;6;0;358;12;8;0;4279;6;0;365;12;9;0;2290;6;0;391;9
11.02.19;16:55:00;1;2450;7102;0;2;0;4076;6;0;389;10;3;2;2505;3;5;439;13;4;0;3437;1;0;190;8;5;7;8648;1;0;1;409;634;21;6;0;6335;23;7;4;262;486;19;7;0;4267;6;0;367;12;8;0;4279;6;0;373;12;9;0;2290;6;0;399;9
11.02.19;16:50:00;1;2821;6897;0;2;1;4076;6;5;399;10;3;1;2505;6;4;499;13;4;0;3437;1;0;220;8;5;59;8648;1;10;16;385;612;21;6;0;6335;23;6;5;468;586;20;7;0;4267;6;0;428;12;8;0;4279;6;0;432;12;9;1;2290;4;1;442;9
11.02.19;16:45:00;1;528;6682;0;2;0;4076;6;0;418;10;3;0;2504;6;6;503;13;4;0;3437;3;0;225;8;5;88;8643;4;23;24;377;598;22;6;44;6334;4;23;24;462;451;20;7;0;4267;4;2;446;12;8;0;4279;4;2;450;12;9;2;2290;3;3;463;9
11.02.19;16:40:00;1;440;6637;0;2;0;4076;6;0;415;10;3;2;2504;6;4;506;13;4;0;3437;3;0;212;9;5;83;8635;4;20;25;376;598;22;6;17;6331;1;15;16;561;537;20;7;1;4267;3;3;422;13;8;3;4279;3;3;427;12;9;0;2290;6;1;484;9
11.02.19;16:35:00;1;214;6604;0;2;6;4076;6;15;397;10;3;0;2504;6;5;511;13;4;0;3437;3;0;214;9;5;98;8628;4;32;28;377;598;22;6;63;6330;4;35;36;452;422;21;7;1;4267;6;9;424;13;8;3;4278;6;9;426;12;9;4;2290;6;5;469;9
11.02.19;16:30:00;1;556;6586;0;2;2;4076;6;7;409;10;3;0;2504;6;4;514;13;4;0;3437;3;0;215;9;5;96;8620;4;26;26;377;598;22;6;17;6324;4;13;13;528;568;21;7;0;4267;6;1;455;13;8;1;4278;6;1;459;13;9;1;2290;6;1;495;9
11.02.19;16:25:00;1;257;6543;0;2;2;4075;4;7;409;10;3;2;2504;3;5;488;13;4;0;3437;3;0;225;9;5;99;8612;4;31;31;376;598;22;6;56;6324;4;27;24;455;358;22;7;0;4267;6;3;455;13;8;1;4278;6;2;456;13;9;1;2290;6;2;504;9
11.02.19;16:20:00;1;277;6521;0;2;14;4075;3;28;394;11;3;1;2504;6;6;527;13;4;0;3437;3;0;200;9;5;126;8604;4;50;47;376;598;22;6;72;6319;4;27;23;455;359;22;7;2;4267;6;6;476;13;8;1;4278;6;6;478;13;9;3;2289;4;6;495;10
11.02.19;16:15:00;1;2717;6497;0;2;5;4074;6;11;413;11;3;1;2504;6;8;519;13;4;0;3437;3;0;239;9;5;116;8593;4;43;37;377;599;22;6;68;6312;4;41;35;455;359;22;7;0;4267;6;0;488;13;8;0;4278;6;0;491;13;9;0;2289;3;7;482;10
11.02.19;16:10:00;1;553;6254;0;2;31;4073;6;44;397;11;3;5;2504;6;14;505;14;4;13;3437;3;13;198;9;5;145;8584;4;61;53;376;599;22;6;84;6307;4;51;44;455;359;22;7;6;4267;3;15;451;14;8;7;4278;3;14;453;14;9;1;2289;6;5;528;10
11.02.19;16:05:00;1;303;6200;0;2;74;4071;4;103;363;12;3;8;2503;6;14;541;14;4;37;3436;3;38;198;9;5;208;8571;4;94;84;376;599;22;6;124;6299;4;58;49;455;359;22;7;18;4266;3;28;467;14;8;53;4277;4;77;365;14;9;11;2289;6;20;514;10
11.02.19;16:00:00;1;272;6175;0;2;65;4065;4;93;374;12;3;4;2503;6;9;543;14;4;16;3434;3;16;198;9;5;192;8554;4;87;74;377;599;22;6;113;6289;4;60;51;455;359;22;7;16;4264;6;23;469;14;8;14;4273;6;25;467;14;9;3;2288;6;5;546;10
11.02.19;15:55:00;1;358;6151;0;2;85;4059;4;113;379;12;3;8;2502;4;14;545;14;4;35;3432;3;36;197;9;5;231;8538;4;107;96;377;599;22;6;134;6280;4;62;52;455;359;22;7;50;4263;4;92;446;14;8;59;4272;4;94;454;14;9;7;2288;6;10;552;10
11.02.19;15:50:00;1;320;6121;0;2;111;4052;4;139;372;12;3;22;2501;6;36;557;14;4;60;3429;3;63;202;9;5;279;8518;4;133;116;380;599;22;6;183;6268;4;98;95;478;428;22;7;71;4259;4;102;460;14;8;54;4267;4;91;473;14;9;0;2287;6;0;583;11
11.02.19;15:45:00;1;577;6096;0;2;288;4043;4;323;395;12;3;171;2500;4;213;514;15;4;235;3425;5;244;233;10;5;642;8494;4;313;276;403;676;22;6;483;6252;4;256;261;587;574;22;7;265;4253;4;299;473;14;8;260;4262;4;298;482;14;9;140;2287;4;169;521;11
11.02.19;15:40:00;1;212;6045;0;2;443;4020;4;485;413;12;3;275;2486;4;318;520;15;4;382;3406;5;398;243;11;5;974;8438;4;493;414;429;676;22;6;723;6210;4;364;366;607;573;22;7;453;4232;4;493;484;14;8;460;4242;4;495;475;14;9;247;2276;4;279;536;11
11.02.19;15:35:00;1;211;6027;0;2;387;3983;4;425;403;12;3;241;2463;4;282;525;15;4;323;3374;5;336;240;11;5;790;8358;4;397;335;421;700;22;6;513;6150;4;310;224;596;391;22;7;454;4195;4;489;484;14;8;456;4204;4;499;491;14;9;246;2256;4;278;526;11
11.02.19;15:30:00;1;212;6009;0;2;355;3951;4;391;409;12;3;218;2443;4;258;512;15;4;286;3347;5;298;238;11;5;718;8293;4;364;305;421;666;22;6;446;6108;4;279;184;575;359;22;7;356;4157;4;398;474;14;8;366;4166;4;399;480;14;9;196;2236;4;227;522;11
11.02.19;15:25:00;1;562;5991;0;2;287;3922;4;321;389;12;3;175;2425;4;215;518;15;4;226;3324;5;235;235;11;5;583;8233;4;287;249;412;620;22;6;326;6072;4;189;147;454;359;22;7;277;4128;4;317;484;14;8;284;4136;4;321;482;14;9;153;2220;4;183;513;11
11.02.19;15:20:00;1;237;5945;0;2;161;3897;4;192;386;12;3;93;2410;4;129;500;15;4;113;3304;5;118;229;11;5;346;8188;4;172;145;377;599;22;6;202;6046;4;118;95;455;359;22;7;143;4104;4;175;452;14;8;140;4112;4;178;458;14;9;78;2207;4;101;464;11
11.02.19;15:15:00;1;251;5926;0;2;113;3884;4;142;373;12;3;30;2402;4;45;528;14;4;64;3295;3;66;199;11;5;257;8159;4;117;104;377;599;22;6;153;6029;4;95;77;455;359;22;7;62;4092;4;80;449;14;8;40;4097;0;50;373;11;9;20;2200;3;28;526;11
11.02.19;15:10:00;1;254;5905;0;2;47;3874;4;74;362;12;3;2;2399;6;8;534;15;4;4;3289;3;5;199;11;5;150;8139;4;60;60;376;599;22;6;86;6017;4;34;29;455;359;22;7;3;4087;6;7;486;15;8;4;4094;6;7;487;14;9;1;2198;6;4;537;11
11.02.19;15:05:00;1;612;5884;0;2;84;3870;4;113;384;13;3;5;2399;4;13;542;15;4;42;3289;3;43;198;11;5;230;8127;4;104;93;376;599;22;6;132;6009;4;79;66;455;359;22;7;66;4087;4;98;420;15;8;55;4094;6;84;458;15;9;7;2198;6;12;550;11
11.02.19;15:00:00;1;210;5838;0;2;186;3863;4;220;390;13;3;110;2399;4;147;503;16;4;128;3285;3;133;223;12;5;410;8107;4;203;169;396;599;22;6;263;5998;4;155;149;480;432;22;7;141;4081;4;179;437;15;8;138;4090;4;173;468;15;9;60;2197;6;78;530;12
11.02.19;14:55:00;1;210;5820;0;2;274;3848;4;309;399;13;3;165;2390;4;205;510;16;4;206;3275;5;215;232;12;5;566;8072;4;273;239;409;652;22;6;411;5975;4;205;213;593;563;22;7;224;4070;4;259;466;15;8;225;4079;4;258;479;15;9;119;2192;4;148;524;12
11.02.19;14:50:00;1;210;5803;0;2;399;3825;4;439;409;14;3;244;2376;4;289;516;16;4;320;3258;5;333;235;12;5;807;8023;4;398;346;412;682;23;6;598;5939;4;300;310;589;578;22;7;383;4051;4;421;477;15;8;377;4060;4;419;471;15;9;203;2183;4;234;526;12
11.02.19;14:45:00;1;503;5785;0;2;503;3792;4;546;408;14;3;316;2356;4;359;518;16;4;416;3231;5;433;243;12;5;1014;7955;4;508;435;425;694;23;6;767;5888;4;423;422;603;580;22;7;520;4020;4;566;484;15;8;528;4029;4;569;477;15;9;281;2166;4;317;526;12
11.02.19;14:40:00;1;209;5738;0;2;512;3751;4;555;409;14;3;318;2330;4;365;516;16;4;417;3197;5;434;238;12;5;1010;7871;4;509;437;422;691;23;6;774;5824;4;399;398;602;582;22;7;525;3977;4;575;484;15;8;534;3986;4;584;481;15;9;288;2143;4;323;530;12
11.02.19;14:35:00;1;225;5721;0;2;375;3708;4;414;401;14;3;230;2303;4;275;519;16;4;300;3162;5;313;235;12;5;774;7787;4;391;329;410;688;23;6;587;5761;4;307;310;588;571;22;7;388;3933;4;425;477;15;8;394;3942;4;427;485;15;9;207;2119;4;240;527;12
11.02.19;14:30:00;1;209;5701;0;2;315;3677;4;352;396;14;3;191;2284;4;232;508;16;4;246;3137;5;256;233;12;5;672;7726;4;330;281;410;660;23;6;504;5714;4;257;264;586;572;22;7;322;3901;4;359;472;15;8;323;3908;4;363;469;15;9;171;2101;4;200;525;13
11.02.19;14:25:00;1;544;5684;0;2;485;3651;4;532;411;14;3;298;2268;4;346;515;16;4;407;3117;5;424;240;13;5;1023;7668;4;515;436;424;695;23;6;765;5671;4;377;384;600;583;22;7;529;3874;4;578;485;15;8;523;3882;4;569;477;15;9;279;2087;4;316;537;13
11.02.19;14:20:00;1;280;5639;0;2;677;3611;4;727;410;15;3;424;2243;4;477;512;17;4;582;3083;5;606;247;13;5;1354;7579;4;691;585;432;698;23;6;1034;5604;4;542;540;611;583;22;7;797;3831;4;847;482;15;8;803;3839;4;855;491;15;9;424;2064;4;469;535;13
11.02.19;14:15:00;1;251;5617;0;2;621;3554;4;671;414;15;3;389;2208;4;441;526;17;4;531;3035;5;553;242;13;5;1302;7467;4;662;567;425;696;23;6;996;5519;4;549;531;608;581;22;7;656;3764;4;699;485;15;8;650;3772;4;697;493;15;9;350;2029;4;390;544;13
11.02.19;14:10:00;1;299;5595;0;2;523;3503;4;568;406;15;3;323;2176;4;372;521;17;4;441;2991;5;459;240;13;5;1105;7359;4;561;474;426;672;23;6;843;5436;4;426;428;609;582;22;7;552;3711;4;595;473;15;8;559;3719;4;598;476;15;9;296;2000;4;334;530;13
11.02.19;14:05:00;1;872;5569;0;2;739;3459;4;793;414;15;3;463;2149;4;518;526;17;4;643;2954;5;670;246;13;5;1560;7265;4;808;675;427;712;23;6;1186;5365;4;601;593;613;580;22;7;813;3664;4;863;480;15;8;806;3671;4;859;482;15;9;435;1975;4;479;532;14
11.02.19;14:00:00;1;270;5520;0;2;1083;3398;4;1148;417;16;3;682;2111;4;746;538;17;4;941;2901;5;980;245;13;5;2180;7132;4;1145;960;435;707;23;6;1643;5264;4;834;824;622;589;22;7;1231;3598;4;1297;496;15;8;1222;3606;4;1283;502;15;9;657;1940;4;713;542;14
11.02.19;13:55:00;1;271;5498;0;2;1312;3310;4;1387;423;16;3;833;2055;4;902;538;17;4;1152;2824;5;1200;253;13;5;2604;6948;4;1387;1138;441;719;23;6;1989;5125;4;1033;1006;620;594;22;7;1473;3498;4;1545;495;15;8;1465;3506;4;1550;498;15;9;799;1887;4;861;550;14